2020-102B (47297 NORAD) Tracking and Keplerian Element Data

This shows tracking and keplerian element data for the satellite.

Feedback or suggestion? Click here.




ElementValue
Catalog47297
Name2020-102B
Epoch Orbit1056
Epoch Day60.87162222
Epoch Year2021
RAAN160.1492
Inclination97.4292
Eccentricity0.0004375
Argument of Perigee290.6691
Mean Anonmoly187.6418
Mean Motion15.1938385
Decay Rate1.453E-05
L11 47297U 20102B 21060.87162222 .00001453 00000-0 71866-4 0 9998
L22 47297 97.4292 160.1492 0004375 290.6691 187.6418 15.19383850 10569

Live tracking and technical data element details for 2020-102B (NORAD 47297). 2020-102B can be tracked NOW for your location showing map with azimuth and elevation plus other details from your city location.

Track the satellite on the map from your city or location and see movement details for azimuth, elevation, latitude, longitude, range, height, and movement on the map or in text.







IsCatalogInMostPopularTable: catalog: 47297, numindb: 21
Update: records affected: 1



GetName: 47297 2020-102B

Hit Count: updated at: Tue, 02 Mar 2021 13:28:03 GMT